Showing default

TURKSAT 5A, 47306

Orbit data source: Space-Track

TURKSAT 5A, 47306 is a payload satellite owned by Turksat (TR) in GEO that was launched on Fri, 08 Jan 2021 UTC via an FALCON 9 launch vehicle from the Air Force Eastern Test Range (AFETR). Payload-class satellites include a variety of spacecraft equipped with specific instruments for various scientific and technological missions. These include communications satellites like Starlink; space stations such as the ISS; scientific satellites like the Hubble; Earth observation satellites from companies like Planet Labs, Umbra, and HawkEye 360; GPS; miniature CubeSats for education and research; and military/defense satellites.

Not visible in the next 10 days
Identifier
47306, 2021-001A
Orbit
GEO
Country
Flag of TRTR / TURK
Related business
Manufacturer
ADS/Bremen
Mission
Operational Commercial Communications
Bus & Motor
EUROSTAR 3000EOR, EOR
Mass
3,500 kg wet, ~2,000 kg dry
Launch date (UTC)
2021-01-08 (5 years ago)
Launch vehicle
FALCON 9
Launch site
Air Force Eastern Test Range (AFETR)
Object type
Payload
Rocket body
Debris
Shape & HBR
Box + 2 Pan, 17.0 m
Radar Cross Section
42.919 m², Large (>1 m²)

Expand to show TLE details & history
Last TLE update: 2 days ago

TLE from 2 days ago
0 TURKSAT 5A
1 47306U 21001A   26171.25552352  .00000149  00000-0  00000+0 0  9993
2 47306   0.0171  61.0853 0000186 297.9813  32.3204  1.00271694 19990
Epoch: 2026-06-20T06:07Z
TLE epoch observation values (Epoch: 2026-06-20T06:07:57.232Z)
Latitude
-0.00215°
Longitude
30.93932°
Altitude
35,785.451 km
Speed
3.075 km/s
True Right ascension
02h 05m 36s
True Declination
0° 00' 08"
Sunlit
Object was in daylight at epoch
Visualization orbit readout
Latitude
Unknown
Longitude
Unknown
Altitude
Unknown
Speed
Unknown
Apparent Right ascension
Unknown
Apparent Declination
Unknown
Sunlit
N/A
Visualization observer readout
Local Sidereal Time
23:08:46
Azimuth
Unknown
Elevation
Unknown
Doppler factor
Unknown
Orbital elements
Apogee altitude
35,788.475 km
Perigee altitude
35,786.907 km
Semi-major axis
42,165.828 km
Eccentricity
0.00002
Inclination
0.0171°
RAAN
61.0853°
Arg. of periapsis
297.9813°
True anomaly
32.32154°
Mean anomaly
32.3204°
Eccentric anomaly
32.32097°
Mean motion
0.25067 °/min
Orbital period
1,436.15 mins
BSTAR
0
Loading maneuver chart data...
Computing Atmospheric mass density...
Loading historical data...
Loading historical data...
Loading historical data...
Loading historical data...
Loading historical data...
Loading historical data...
Loading historical data...
Other satellites on launch #1 in the year 2021 (2021-01-08 UTC)

Documentation

Showing up to 5 results
|